Date,TemperatureHighF,TemperatureAvgF,TemperatureLowF,DewpointHighF,DewpointAvgF,DewpointLowF,HumidityHigh,HumidityAvg,HumidityLow,PressureMaxIn,PressureMinIn,WindSpeedMaxMPH,WindSpeedAvgMPH,GustSpeedMaxMPH,PrecipitationSumIn
2013-1-1,22.9,10.7,-6.9,15.0,4.1,-11.0,84,75,66,30.20,30.02,17,5,25,0.00
2013-1-2,18.3,15.7,13.0,11.0,8.8,7.0,79,74,66,30.22,30.02,8,3,18,0.00
2013-1-4,31.7,28.8,27.9,25.0,18.8,-99.9,85,74,65,30.09,0.00,15,-26,25,0.00
2013-1-5,31.5,24.7,17.5,22.0,18.7,12.0,88,78,65,30.29,29.95,15,3,18,0.00
2013-1-6,26.1,22.1,13.8,23.0,16.8,6.0,92,80,63,30.34,29.89,7,2,12,0.00
2013-1-7,38.0,28.0,12.7,31.0,21.4,6.0,88,77,67,30.35,29.93,19,7,25,0.02
2013-1-8,38.7,34.1,28.2,32.0,29.5,25.0,92,84,68,30.20,29.97,13,3,17,0.02
2013-1-9,38.2,35.0,32.5,33.0,29.7,26.0,91,81,71,30.39,29.83,19,8,29,0.01
2013-1-10,37.8,33.4,25.7,33.0,28.1,22.0,90,81,65,30.61,30.29,10,3,18,0.01
2013-1-11,38.9,36.3,34.3,38.0,34.8,32.0,97,94,86,30.28,29.74,12,3,16,0.60
2013-1-12,42.0,17.9,-90.0,41.0,2.1,-99.9,97,73,79,30.03,29.71,25,5,28,0.01
2013-1-13,34.0,31.8,28.3,32.0,28.5,24.0,93,88,84,30.02,29.90,7,3,11,0.01
2013-1-14,28.0,23.9,19.7,25.0,17.2,12.0,89,76,61,30.39,29.94,18,7,22,0.02
2013-1-15,27.6,21.7,12.5,23.0,15.8,8.0,87,78,63,30.41,30.11,20,8,23,0.00
2013-1-16,29.5,28.5,27.6,28.0,23.7,22.0,94,82,75,30.10,29.60,19,10,26,0.00
2013-1-17,12.5,6.2,-6.7,8.0,-1.6,-99.9,88,75,59,30.37,30.25,20,-11,25,0.00
2013-1-18,14.8,2.8,-7.3,12.0,-0.5,-11.0,89,86,82,30.40,30.20,8,1,14,0.00
2013-1-21,9.3,2.5,-3.5,5.0,-4.4,-99.9,89,77,74,30.12,29.95,7,-14,10,0.00
2013-1-22,-3.1,-11.2,-19.7,-10.0,-18.5,-25.0,78,71,55,30.34,30.11,6,1,9,0.00
2013-1-23,6.5,-4.1,-21.3,1.0,-9.6,-26.0,83,77,70,30.39,30.18,5,1,11,0.00
2013-1-24,4.9,-6.3,-17.2,-4.0,-12.9,-22.0,89,73,58,30.75,30.40,17,2,17,0.00
2013-1-25,18.3,8.3,-8.0,14.0,4.6,-13.0,87,84,80,30.59,30.13,7,1,10,0.00
2013-1-26,21.9,11.2,-2.1,13.0,6.4,-6.0,89,81,66,30.53,30.17,5,1,9,0.12
2013-1-27,28.7,20.3,10.7,26.0,16.3,6.0,89,84,78,30.54,30.24,7,2,11,0.12
2013-1-28,31.2,-46.1,-90.0,30.0,-54.9,-99.9,95,33,91,30.23,29.94,8,-19,17,0.03
2013-1-29,-24.6,-79.4,-90.0,-99.9,-99.9,-99.9,0,0,100,30.22,29.75,9,3,18,0.41
2013-1-30,19.5,-23.6,-45.5,17.0,-83.8,-99.9,92,13,83,29.74,29.23,10,4,21,0.24
2013-1-31,10.9,5.6,2.1,6.0,0.7,-3.0,92,80,74,29.91,29.27,13,6,15,0.24
2013-2-1,11.8,3.8,-5.8,8.0,-1.8,-11.0,84,78,68,30.20,29.92,6,1,9,0.00
2013-2-2,15.0,3.9,-10.3,4.0,-2.5,-15.0,86,76,53,30.14,30.09,9,2,13,0.00
2013-2-3,17.2,4.1,-10.9,15.0,-0.6,-15.0,92,81,65,30.11,29.85,10,2,19,0.00
2013-2-4,7.4,-4.6,-19.8,-1.0,-10.1,-25.0,84,77,64,30.11,30.01,5,1,7,0.00
2013-2-5,19.3,-18.2,-90.0,17.0,-23.1,-99.9,92,67,79,30.08,29.81,7,2,12,0.00
2013-2-6,10.5,2.3,-17.1,7.0,-2.5,-22.0,87,80,70,30.42,30.09,7,1,12,0.00
2013-2-7,11.2,10.2,9.1,8.0,7.0,6.0,87,86,85,30.43,30.40,9,3,12,0.00
2013-2-26,33.0,31.2,29.5,25.0,24.6,24.0,81,77,70,30.14,29.96,13,6,19,0.00
2013-2-27,36.8,33.1,29.6,31.0,28.2,25.0,86,82,77,29.95,29.78,14,7,21,0.04
2013-2-28,34.5,29.0,18.8,30.0,20.7,11.0,82,72,56,30.17,29.78,14,6,24,0.00
2013-3-1,30.2,20.3,13.5,14.0,10.2,7.0,78,66,49,30.30,30.17,16,4,17,0.00
2013-3-2,29.8,18.2,11.6,15.0,9.0,5.0,77,68,48,30.30,30.16,11,4,14,0.00
2013-3-3,24.0,13.1,-0.4,13.0,6.4,-5.0,92,75,58,30.20,30.11,11,2,13,0.00
2013-3-4,27.6,12.8,-6.4,13.0,4.2,-11.0,86,70,46,30.26,30.17,11,2,17,0.00
2013-3-5,32.7,20.7,6.0,25.0,13.5,2.0,87,74,59,30.29,30.16,10,2,15,0.00
2013-3-6,37.3,32.6,29.3,30.0,26.5,23.0,92,78,68,30.30,30.21,9,2,13,0.00
2013-3-7,37.4,30.2,24.3,29.0,25.4,21.0,87,82,71,30.48,30.28,9,4,12,0.05
2013-3-8,38.4,29.5,18.2,31.0,25.0,15.0,87,83,75,30.57,30.46,7,1,10,0.00
2013-3-9,37.1,32.1,26.9,32.0,28.3,24.0,92,86,75,30.46,30.13,8,2,16,0.00
2013-3-10,37.2,34.6,31.7,34.0,31.4,28.0,89,88,87,30.13,29.89,8,1,10,0.99
2013-3-11,39.8,37.3,35.2,37.0,34.2,32.0,89,88,88,29.98,29.44,15,4,17,0.55
2013-3-12,35.7,27.2,19.4,33.0,24.3,17.0,89,88,87,29.90,29.43,6,0,10,0.02
2013-3-13,25.4,18.4,14.1,17.0,13.5,10.0,89,81,57,30.20,29.89,18,3,20,0.00
2013-3-14,13.8,5.3,-3.9,3.0,-0.8,-8.0,86,76,56,30.30,30.24,5,0,7,0.00
2013-3-16,20.9,13.2,6.8,15.0,1.7,-3.0,85,61,45,30.13,30.04,11,4,18,0.00
2013-3-17,19.8,11.5,-0.4,15.0,2.7,-4.0,87,69,48,30.45,30.07,8,2,12,0.01
2013-3-18,33.8,20.8,-1.9,24.0,11.4,-6.0,87,69,45,30.39,29.64,15,5,26,0.00
2013-3-19,29.8,27.6,24.3,26.0,24.3,21.0,88,87,83,29.78,29.49,14,7,23,0.05
2013-3-20,27.9,22.8,13.9,24.0,19.1,11.0,96,86,73,29.84,29.78,12,5,17,0.02
2013-3-21,31.2,25.6,20.9,23.0,18.4,15.0,88,75,54,29.92,29.82,21,6,21,0.03
2013-3-22,36.2,26.5,14.7,25.0,19.4,11.0,86,75,57,30.08,29.91,18,5,20,0.02
2013-3-23,38.7,29.6,15.7,27.0,22.4,13.0,87,75,59,30.17,30.08,18,4,21,0.00
2013-3-24,38.1,29.5,22.6,25.0,21.5,18.0,83,72,46,30.16,29.95,8,2,13,0.00
2013-3-25,42.4,38.0,31.1,29.0,23.3,-99.9,77,59,47,30.02,29.91,12,-13,15,0.00
2013-3-26,45.0,37.9,32.2,29.0,24.8,16.0,76,61,35,30.11,30.03,14,6,18,0.00
2013-3-27,43.9,36.2,29.9,30.0,26.7,24.0,82,69,50,30.22,30.10,17,4,20,0.00
2013-3-28,43.1,36.2,31.2,30.0,27.2,20.0,86,72,44,30.28,30.22,13,4,18,0.00
2013-3-29,44.7,33.5,22.2,29.0,23.4,19.0,86,68,40,30.32,30.25,9,3,16,0.00
2013-3-30,43.4,31.8,18.6,32.0,24.5,15.0,87,76,49,30.27,29.89,6,1,11,0.06
2013-3-31,37.7,34.6,26.2,34.0,31.0,21.0,88,86,75,29.89,29.59,16,4,27,0.16
2013-4-1,26.6,22.0,17.3,21.0,13.2,9.0,85,70,51,30.09,29.66,24,10,30,0.00
2013-4-2,28.8,20.8,11.9,16.0,12.5,9.0,87,72,48,30.27,30.08,22,6,33,0.00
2013-4-3,34.8,25.3,13.2,22.0,12.7,6.0,87,62,33,30.44,30.27,14,5,22,0.00
2013-4-4,38.0,31.2,20.5,33.0,26.3,17.0,87,82,71,30.33,29.96,11,4,17,0.06
2013-4-5,34.0,29.3,23.3,26.0,18.0,12.0,86,64,48,30.29,30.02,18,7,25,0.00
2013-4-6,33.2,27.1,18.6,30.0,22.3,15.0,88,82,64,30.31,29.81,14,3,18,0.02
2013-4-7,41.0,36.7,33.0,36.0,32.1,30.0,88,83,73,30.10,29.49,11,5,18,0.87
2013-4-8,39.5,35.3,32.0,33.0,30.8,29.0,92,83,73,30.13,29.96,9,2,14,0.07
2013-4-9,42.0,36.9,33.3,37.0,33.2,30.0,88,86,81,30.18,30.06,7,2,8,0.01
2013-4-10,46.0,37.5,32.0,32.0,25.1,16.0,87,63,31,30.23,30.12,10,3,13,0.01
2013-4-11,36.8,31.8,25.7,23.0,13.8,10.0,79,48,40,30.29,30.07,15,6,21,0.00
2013-4-12,32.1,28.7,25.3,28.0,25.1,22.0,87,86,83,30.08,29.75,18,6,24,0.02
2013-4-13,34.6,30.6,26.3,31.0,27.3,23.0,88,87,85,29.93,29.76,7,2,13,0.08
2013-4-14,39.3,32.7,26.7,31.0,26.9,24.0,88,80,59,30.18,29.93,9,3,12,0.08
2013-4-15,41.5,37.5,34.4,38.0,32.3,27.0,87,82,67,30.15,29.90,17,5,23,0.55
2013-4-16,44.9,36.7,33.4,32.0,23.3,-99.9,86,69,59,30.36,0.00,22,-50,28,0.00
2013-4-17,44.4,36.3,28.1,32.0,28.8,25.0,87,75,54,30.53,30.25,8,2,12,0.00
2013-4-18,43.4,40.7,37.9,40.0,35.2,23.0,87,82,48,30.26,29.58,15,4,19,0.57
2013-4-19,42.4,37.2,27.2,39.0,33.1,22.0,89,85,74,29.56,29.26,24,8,32,0.46
2013-4-20,32.5,25.6,17.6,22.0,14.9,8.0,84,65,50,30.52,29.55,19,10,29,0.00
2013-4-21,37.8,28.9,15.8,29.0,21.8,13.0,88,76,42,30.73,30.52,9,2,15,0.00
2013-4-22,44.4,37.6,32.9,35.0,32.0,29.0,85,80,68,30.53,30.35,8,3,15,0.00
2013-4-23,43.8,37.9,33.4,38.0,32.1,-99.9,87,84,73,30.03,0.00,12,-15,15,0.58
2013-4-24,44.3,36.7,31.5,31.0,28.8,23.0,87,74,53,30.05,29.89,14,5,17,0.01
2013-4-25,37.8,32.9,25.4,34.0,29.1,22.0,87,86,77,30.32,30.02,11,3,18,0.09
2013-4-26,45.8,37.1,24.4,37.0,31.3,21.0,88,80,64,30.43,30.28,8,2,14,0.06
2013-4-27,56.7,45.1,31.2,47.0,39.2,28.0,88,80,67,30.31,30.17,8,1,11,0.06
2013-4-28,59.7,48.2,33.3,44.0,38.4,30.0,88,71,50,30.17,29.94,10,2,17,0.00
2013-4-29,54.3,48.4,45.1,49.0,44.6,42.0,88,86,83,29.96,29.92,8,2,12,0.10
2013-4-30,57.2,51.6,47.2,52.0,43.3,-99.9,89,82,82,30.02,0.00,12,-12,19,0.01
2013-5-1,66.5,57.7,48.9,55.0,50.5,43.0,86,77,64,30.30,30.01,11,3,14,0.01
2013-5-2,66.2,53.7,41.6,53.0,45.1,38.0,86,74,44,30.36,30.24,9,2,15,0.00
2013-5-3,69.0,58.8,45.6,44.0,41.9,40.0,84,56,36,30.26,30.20,11,3,15,0.00
2013-5-4,65.8,56.6,42.6,49.0,43.0,38.0,84,62,49,30.23,30.20,12,2,15,0.00
2013-5-5,68.0,52.7,38.1,48.0,40.1,34.0,86,66,34,30.23,30.15,8,2,11,0.00
2013-5-6,68.7,52.7,36.7,46.0,40.0,33.0,86,65,37,30.19,30.07,6,1,10,0.00
2013-5-7,68.8,53.0,36.1,48.0,37.9,32.0,87,61,27,30.18,30.10,6,1,10,0.00
2013-5-8,70.9,54.7,35.1,43.0,37.1,31.0,85,56,25,30.13,30.02,7,1,9,0.00
2013-5-9,67.8,54.5,42.4,47.0,40.8,34.0,85,63,39,30.13,29.98,13,4,15,0.00
2013-5-10,45.9,40.0,35.2,37.0,33.4,30.0,86,78,60,30.16,29.99,12,5,18,0.02
2013-5-11,49.7,39.7,30.9,38.0,33.1,27.0,87,78,52,29.99,29.68,15,4,19,0.29
2013-5-12,36.9,33.8,30.8,33.0,30.4,28.0,88,87,84,30.04,29.61,21,11,30,0.06
2013-5-13,50.1,40.4,28.8,32.0,25.7,19.0,87,60,30,30.15,30.04,16,5,24,0.06
2013-5-14,50.9,44.0,37.5,41.0,36.6,31.0,85,75,64,30.11,29.80,12,4,16,0.01
2013-5-15,66.9,55.1,44.8,47.0,40.9,36.0,83,62,32,29.80,29.56,29,10,35,0.00
2013-5-16,60.2,52.1,42.9,44.0,39.6,37.0,80,63,48,30.13,29.75,15,5,22,0.00
2013-5-17,60.8,49.6,35.4,43.0,37.6,32.0,86,66,42,30.30,30.14,10,2,13,0.00
2013-5-18,64.9,53.1,36.5,47.0,39.8,33.0,86,63,40,30.31,30.14,9,2,15,0.00
2013-5-19,67.6,59.1,53.8,49.0,47.2,43.0,82,66,49,30.14,29.95,10,2,14,0.01
2013-5-20,69.2,60.8,55.5,58.0,54.1,50.0,85,79,67,30.01,29.79,10,4,31,0.78
2013-5-21,58.7,55.1,49.6,55.0,51.1,46.0,88,86,85,29.89,29.76,14,4,17,1.50
2013-5-22,58.9,55.4,53.0,54.0,51.4,49.0,87,86,83,29.80,29.75,10,3,16,0.20
2013-5-23,54.3,46.1,38.5,49.0,32.8,-99.9,87,63,45,30.30,29.80,14,-7,21,0.50
2013-5-24,53.4,43.0,35.7,39.0,30.8,26.0,77,63,50,30.44,30.30,13,5,20,0.00
2013-5-25,60.2,47.6,32.8,42.0,35.8,29.0,87,66,40,30.51,30.36,11,3,16,0.00
2013-5-26,62.5,49.7,34.6,41.0,35.8,31.0,86,62,37,30.45,30.28,12,3,16,0.00
2013-5-27,62.4,50.4,35.7,45.0,37.9,32.0,86,65,38,30.31,30.13,7,2,13,0.00
2013-5-28,59.6,51.7,40.4,51.0,42.9,36.0,87,73,56,30.12,29.85,11,3,14,0.33
2013-5-29,64.3,55.9,49.1,58.0,51.7,46.0,89,86,80,30.00,29.80,10,3,14,0.41
2013-5-30,74.7,61.4,51.4,66.0,54.9,-99.9,87,81,70,30.04,29.92,9,-8,13,0.00
2013-5-31,72.4,65.4,60.5,65.0,60.0,56.0,87,82,73,29.94,29.81,10,2,12,0.00
2013-6-1,67.7,60.5,55.9,63.0,56.5,52.0,87,86,84,29.82,29.69,10,1,20,0.26
2013-6-2,56.8,50.7,41.6,53.0,46.4,37.0,88,85,78,30.01,29.60,18,7,22,0.18
2013-6-3,54.9,46.5,38.0,39.0,36.4,33.0,88,70,49,30.15,30.01,23,9,30,0.00
2013-6-4,63.7,50.7,34.6,45.0,39.2,31.0,88,67,39,30.27,30.15,11,3,16,0.00
2013-6-5,57.7,52.5,47.1,49.0,43.8,41.0,86,73,61,30.31,30.20,7,1,10,0.00
2013-6-6,64.4,57.2,49.6,48.0,43.0,39.0,86,61,40,30.20,30.03,9,2,16,0.00
2013-6-7,66.7,53.7,41.7,51.0,45.1,38.0,87,74,49,30.05,29.95,8,2,11,0.00
2013-6-8,64.8,55.9,41.8,52.0,46.8,38.0,88,73,45,30.12,29.96,6,1,9,0.00
2013-6-9,71.2,57.2,41.1,53.0,46.4,38.0,88,70,35,30.20,30.11,6,1,11,0.00
2013-6-10,68.1,61.9,54.6,59.0,54.0,48.0,86,76,63,30.12,29.88,10,3,14,0.02
2013-6-11,64.9,61.8,58.8,61.0,57.9,55.0,87,86,85,29.92,29.85,6,1,8,0.02
2013-6-12,72.6,62.4,55.7,61.0,55.5,51.0,89,79,48,29.95,29.80,9,3,13,0.00
2013-6-13,74.3,62.7,51.2,63.0,53.4,47.0,87,73,50,30.04,29.76,12,3,17,0.11
2013-6-14,68.4,58.8,47.2,49.0,43.3,37.0,70,57,39,30.18,30.05,10,4,15,0.00
2013-6-15,65.0,57.0,43.9,51.0,44.9,31.0,86,66,28,30.09,29.90,6,1,7,0.00
2013-6-16,70.0,59.9,52.5,63.0,54.0,49.0,88,81,62,29.90,29.75,12,3,17,0.28
2013-6-17,60.2,55.8,52.0,53.0,50.2,47.0,89,82,71,30.07,29.84,10,2,12,0.00
2013-6-18,66.5,56.6,43.5,49.0,43.2,37.0,88,64,37,30.18,30.07,12,3,16,0.00
2013-6-19,67.9,56.6,41.1,55.0,47.4,38.0,88,72,51,30.25,30.15,11,2,13,0.00
2013-6-20,65.4,58.2,45.6,58.0,51.6,42.0,87,79,65,30.23,30.16,8,1,12,0.02
2013-6-21,67.3,61.1,56.2,59.0,56.3,52.0,87,84,75,30.23,30.02,12,2,16,1.02
2013-6-22,70.3,63.3,59.1,65.0,59.4,56.0,88,87,82,30.12,29.96,9,1,10,0.02
2013-6-23,69.1,62.9,57.6,64.0,59.1,54.0,89,87,83,30.08,29.92,6,1,9,0.02
2013-6-24,79.8,68.7,58.0,70.0,63.2,55.0,89,83,69,29.98,29.86,7,2,12,0.00
2013-6-25,79.6,69.2,63.6,70.0,63.3,60.0,87,82,62,29.89,29.80,8,2,14,0.23
2013-6-26,80.1,72.2,64.3,67.0,55.6,-99.9,85,67,60,29.83,29.78,7,-21,8,0.00
2013-6-27,71.5,66.5,62.4,66.0,62.2,58.0,87,86,77,29.82,29.72,7,1,13,0.30
2013-6-28,69.5,64.5,61.0,65.0,60.7,58.0,88,87,85,29.71,29.64,5,0,11,0.12
2013-6-29,78.9,66.4,54.1,63.0,55.9,51.0,88,71,41,29.82,29.67,11,2,14,0.12
2013-6-30,79.2,68.6,55.7,53.0,45.3,33.0,79,46,22,30.07,29.82,9,2,14,0.00
2013-7-1,73.0,63.1,52.4,54.0,46.5,37.0,84,57,28,30.24,30.07,11,3,16,0.00
2013-7-2,71.9,61.6,50.0,55.0,48.3,42.0,84,63,41,30.24,30.14,6,2,10,0.00
2013-7-3,74.4,64.3,53.5,59.0,53.2,48.0,86,70,41,30.18,30.09,6,1,10,0.00
2013-7-4,73.0,66.8,59.0,65.0,61.4,55.0,87,83,74,30.11,30.05,11,3,16,0.00
2013-7-5,78.4,68.6,56.3,68.0,61.9,53.0,88,80,64,30.10,30.02,7,2,14,0.00
2013-7-6,83.8,69.7,56.8,69.0,62.0,53.0,88,78,51,30.07,29.99,8,2,15,0.00
2013-7-7,76.6,69.2,58.1,71.0,64.2,55.0,88,84,75,30.02,29.94,7,1,10,0.11
2013-7-8,69.7,65.6,61.1,65.0,61.4,57.0,87,86,85,30.05,30.00,5,2,9,0.11
2013-7-9,74.3,69.8,65.9,69.0,65.6,62.0,88,86,83,30.05,29.79,7,2,10,0.01
2013-7-10,69.5,65.6,61.8,66.0,61.9,58.0,88,87,84,29.79,29.62,16,6,23,0.18
2013-7-11,71.7,66.6,58.5,60.0,57.0,53.0,87,72,62,30.14,30.11,12,4,14,0.00
2013-7-12,74.9,61.9,48.2,62.0,54.7,45.0,89,78,54,30.24,30.13,6,1,9,0.00
2013-7-13,78.8,65.9,50.9,66.0,59.0,48.0,89,79,54,30.26,30.19,7,2,12,0.00
2013-7-14,80.5,69.6,56.0,68.0,61.4,53.0,88,76,55,30.31,30.25,8,2,11,0.00
2013-7-15,84.8,71.3,58.5,70.0,63.9,55.0,88,78,54,30.34,30.26,7,2,11,0.00
2013-7-16,86.9,74.6,62.7,73.0,67.6,59.0,88,79,58,30.32,30.18,7,2,14,0.00
2013-7-17,86.4,78.3,73.0,76.0,71.5,69.0,87,80,66,30.21,30.10,14,4,16,0.00
2013-7-18,78.2,71.8,67.5,72.0,67.5,64.0,88,86,79,30.11,29.78,10,2,17,1.42
2013-7-19,79.7,65.2,62.7,73.0,53.1,-99.9,88,77,59,29.78,29.61,16,-66,21,0.01
2013-7-20,70.3,61.7,54.4,59.0,48.7,-99.9,89,71,47,30.02,29.74,12,-19,23,0.01
2013-7-21,68.5,57.6,47.8,55.0,46.8,-99.9,89,72,50,30.13,30.02,6,-19,11,0.00
2013-7-22,73.9,65.4,51.9,67.0,59.8,49.0,88,82,72,30.03,29.66,13,2,14,0.00
2013-7-23,69.1,62.1,49.8,65.0,55.4,46.0,87,79,60,29.96,29.61,17,7,24,0.19
2013-7-24,70.0,55.3,43.0,54.0,43.5,-99.9,89,72,52,30.09,29.97,13,-30,15,0.00
2013-7-25,69.7,56.2,46.8,60.0,43.3,-99.9,89,75,66,30.13,30.07,11,-41,15,0.00
2013-7-26,67.2,60.7,60.3,63.0,53.7,-99.9,88,84,81,30.07,29.89,8,-30,24,1.28
2013-7-27,68.5,59.6,55.5,62.0,50.7,-99.9,89,82,76,29.89,29.76,9,-29,13,0.02
2013-7-28,65.1,55.2,53.7,57.0,45.8,-99.9,89,80,70,29.93,29.72,9,-33,14,0.03
2013-7-29,69.3,55.7,54.3,60.0,46.5,-99.9,88,81,72,30.19,29.93,10,-48,16,0.01
2013-7-30,69.5,58.0,49.3,62.0,48.1,-99.9,89,78,61,30.25,30.16,7,-40,12,0.00
2013-7-31,72.1,62.8,56.6,63.0,58.0,53.0,89,85,70,30.16,29.91,9,1,17,0.67
2013-8-1,72.0,59.0,54.7,61.0,47.4,-99.9,92,76,58,29.93,29.86,14,-51,19,0.01
2013-8-2,67.4,56.7,50.3,62.0,50.6,-99.9,89,85,77,29.91,29.82,8,-21,12,0.68
2013-8-3,66.3,56.4,49.9,57.0,47.8,-99.9,90,80,67,30.08,29.91,13,-28,19,0.00
2013-8-4,70.6,58.6,46.4,55.0,50.4,43.0,89,76,52,30.20,30.08,13,4,21,0.00
2013-8-5,66.5,52.1,42.9,59.0,48.0,40.0,89,86,72,30.14,30.06,5,1,8,0.00
2013-8-7,72.9,63.9,59.8,65.0,55.3,-99.9,87,79,69,29.95,29.79,14,-19,20,0.00
2013-8-8,69.7,61.3,51.3,58.0,54.1,48.0,89,78,50,30.07,29.96,9,3,12,0.00
2013-8-9,68.1,59.6,51.6,62.0,54.2,48.0,89,83,60,30.05,29.88,26,4,26,0.05
2013-8-10,71.1,58.0,42.9,58.0,50.3,40.0,90,77,52,30.15,30.06,10,3,17,0.05
2013-8-11,69.8,58.4,45.5,62.0,53.3,43.0,89,83,64,30.14,30.04,8,1,13,0.00
2013-8-12,64.4,57.1,49.4,61.0,53.8,46.0,92,88,86,30.05,29.88,12,2,15,0.36
2013-8-13,58.8,54.3,48.9,51.0,47.5,45.0,87,78,65,30.11,29.93,12,4,22,0.36
2013-8-14,67.5,56.8,45.4,53.0,47.9,42.0,89,74,50,30.17,30.10,16,4,20,0.00
2013-8-15,74.3,59.4,44.6,57.0,50.6,42.0,90,75,48,30.13,30.05,11,3,16,0.00
2013-8-16,71.9,59.2,45.6,60.0,52.0,43.0,89,78,51,30.24,30.13,6,1,10,0.00
2013-8-17,73.2,61.0,47.7,63.0,54.4,45.0,89,80,57,30.31,30.22,7,1,10,0.00
2013-8-18,78.0,63.3,49.4,62.0,55.4,46.0,89,77,50,30.24,30.11,7,2,10,0.00
2013-8-19,75.4,63.4,51.0,64.0,57.2,48.0,89,81,63,30.12,29.99,8,2,15,0.00
2013-8-20,79.8,67.7,55.4,70.0,61.4,52.0,89,81,63,30.06,29.99,11,2,15,0.00
2013-8-21,82.5,71.0,60.0,71.0,64.6,57.0,88,80,65,30.05,29.89,10,3,14,0.00
2013-8-22,79.2,68.2,58.6,67.0,54.9,-99.9,88,68,33,30.13,29.91,9,-12,16,0.00
2013-8-23,69.5,60.9,50.3,61.0,54.1,47.0,89,79,59,30.27,30.13,8,2,9,0.00
2013-8-24,71.9,61.3,47.6,64.0,56.1,45.0,90,83,71,30.36,30.27,7,2,12,0.00
2013-8-25,70.9,68.3,66.7,67.0,64.7,63.0,88,88,87,30.04,30.01,7,1,8,0.38
2013-8-26,82.5,72.4,66.3,72.0,67.2,63.0,89,84,69,30.06,29.92,8,3,22,2.00
2013-8-27,68.4,66.5,66.1,65.0,63.1,63.0,89,88,87,29.96,29.93,4,1,8,0.00